{"data":{"norad_id":56528,"epoch":"2026-05-25T00:44:30.419232Z","epoch_age_seconds":75460,"freshness":"FRESH","line1":"1 56528U 23065AB  26145.03090763  .00000344  00000+0  22019-4 0  9996","line2":"2 56528  43.0018 144.8612 0001061 271.9665  88.1065 15.27574147168235","mean_motion":15.27574147,"eccentricity":0.0001061,"inclination_deg":43.0018,"raan_deg":144.8612,"arg_perigee_deg":271.9665,"mean_anomaly_deg":88.1065,"bstar":2.2019e-5,"rev_number":16823,"period_min":94.267109902849,"perigee_km":482.33864837892,"apogee_km":483.79459578752,"semimajor_km":6861.2036220832,"source":"CELESTRAK","updated_at":"2026-05-25T13:38:18.111406Z"}}